Location: Unspecified
(50.7693°N, 0.0000°E)
Time: 10:01:48
(UTC+00:00)

Transit 4A - Pass Details

Date: 30 June 2019
Orbit: 864 x 981 km, 66.8° (Epoch: 25 August)

Event Time Altitude Azimuth Distance (km) Brightness Sun altitude
Rises 08:29:44 0° 254° (WSW) 3,653 10.6 40.6°
Reaches altitude 10° 08:32:34 10° 264° (W) 2,720 10.0 41.0°
Maximum altitude 08:38:16 33° 327° (NNW) 1,590 9.1 41.9°
Drops below altitude 10° 08:44:01 10° 31° (NNE) 2,744 10.6 42.8°
Sets 08:46:54 0° 41° (NE) 3,689 11.3 43.2°
